TimeEST,TemperatureF,Dew PointF,Humidity,Sea Level PressureIn,VisibilityMPH,Wind Direction,Wind SpeedMPH,Gust SpeedMPH,PrecipitationIn,Events,Conditions,WindDirDegrees,DateUTC
12:22 AM,32.0,28.4,87,29.80,2.0,North,20.7,32.2,0.02,Snow,Light Snow,10,2012-11-08 05:22:00
12:27 AM,32.0,28.4,87,29.79,1.8,North,18.4,32.2,0.02,Snow,Light Snow,10,2012-11-08 05:27:00
12:37 AM,32.0,28.4,87,29.79,2.5,North,18.4,26.5,0.03,Snow,Light Snow,10,2012-11-08 05:37:00
12:50 AM,33.8,28.4,81,29.79,1.8,NNE,21.9,28.8,0.04,Snow,Light Snow,20,2012-11-08 05:50:00
12:54 AM,33.1,28.9,85,29.80,2.0,NNE,21.9,28.8,0.04,Snow,Light Snow,20,2012-11-08 05:54:00
1:13 AM,33.8,30.2,87,29.79,3.0,North,17.3,25.3,0.01,Snow,Light Snow,10,2012-11-08 06:13:00
1:21 AM,33.8,30.2,87,29.78,2.5,North,17.3,-,0.02,Snow,Light Snow,10,2012-11-08 06:21:00
1:31 AM,33.8,30.2,87,29.78,3.0,NNE,16.1,25.3,0.02,Snow,Light Snow,20,2012-11-08 06:31:00
1:54 AM,33.1,28.9,85,29.78,5.0,North,18.4,32.2,0.02,Snow,Light Snow,10,2012-11-08 06:54:00
2:54 AM,34.0,28.9,82,29.76,10.0,North,17.3,27.6,0.02,Rain,Light Rain,10,2012-11-08 07:54:00
3:54 AM,34.0,30.0,85,29.75,8.0,North,20.7,29.9,0.00,Rain,Light Rain,10,2012-11-08 08:54:00
4:54 AM,34.0,30.0,85,29.73,10.0,North,19.6,28.8,0.00,,Overcast,10,2012-11-08 09:54:00
5:54 AM,35.1,30.9,85,29.72,10.0,North,20.7,32.2,N/A,,Overcast,10,2012-11-08 10:54:00
6:54 AM,35.1,30.9,85,29.72,10.0,North,18.4,27.6,N/A,,Overcast,10,2012-11-08 11:54:00
7:54 AM,36.0,32.0,86,29.71,8.0,North,19.6,28.8,0.00,,Overcast,10,2012-11-08 12:54:00
8:38 AM,35.6,32.0,87,29.71,2.0,North,17.3,28.8,0.03,Snow,Light Snow,10,2012-11-08 13:38:00
8:50 AM,35.6,33.8,93,29.71,4.0,North,16.1,23.0,0.05,Rain,Rain,10,2012-11-08 13:50:00
8:54 AM,36.0,33.1,89,29.72,5.0,North,15.0,23.0,0.05,Rain,Light Rain,10,2012-11-08 13:54:00
9:54 AM,37.0,33.1,86,29.71,4.0,North,18.4,25.3,0.05,Rain,Light Rain,10,2012-11-08 14:54:00
10:54 AM,37.0,33.1,86,29.70,3.0,North,17.3,28.8,0.00,Snow,Light Snow,360,2012-11-08 15:54:00
11:01 AM,37.4,33.8,87,29.69,2.5,North,15.0,27.6,0.00,Snow,Light Snow,360,2012-11-08 16:01:00
11:15 AM,37.4,33.8,87,29.68,4.0,North,20.7,29.9,0.00,Snow,Light Snow,10,2012-11-08 16:15:00
11:33 AM,37.4,33.8,87,29.68,2.5,North,17.3,28.8,0.01,Snow,Light Snow,10,2012-11-08 16:33:00
11:42 AM,37.4,33.8,87,29.68,4.0,North,16.1,27.6,0.01,Rain,Light Rain,360,2012-11-08 16:42:00
11:54 AM,37.9,34.0,86,29.68,6.0,North,19.6,28.8,0.01,Rain,Light Rain,10,2012-11-08 16:54:00
12:54 PM,37.9,34.0,86,29.68,10.0,North,18.4,31.1,0.00,,Overcast,360,2012-11-08 17:54:00
1:54 PM,39.0,35.1,86,29.68,4.0,North,15.0,21.9,0.00,Rain,Light Rain,10,2012-11-08 18:54:00
1:56 PM,39.2,35.6,87,29.68,4.0,North,13.8,21.9,0.00,Rain,Light Rain,360,2012-11-08 18:56:00
2:27 PM,39.2,35.6,87,29.68,7.0,North,10.4,23.0,0.01,Rain,Light Rain,360,2012-11-08 19:27:00
2:54 PM,39.0,35.1,86,29.69,10.0,North,13.8,-,0.01,Rain,Light Rain,360,2012-11-08 19:54:00
3:54 PM,39.0,35.1,86,29.71,10.0,North,13.8,23.0,0.01,,Overcast,350,2012-11-08 20:54:00
4:20 PM,39.2,35.6,87,29.71,2.5,North,15.0,20.7,0.02,Rain,Rain,350,2012-11-08 21:20:00
4:27 PM,39.2,35.6,87,29.71,5.0,North,13.8,20.7,0.02,Rain,Light Rain,350,2012-11-08 21:27:00
4:54 PM,39.0,36.0,89,29.73,10.0,North,13.8,-,0.02,,Overcast,350,2012-11-08 21:54:00
5:54 PM,39.0,36.0,89,29.75,5.0,NNW,10.4,-,0.00,Rain,Light Rain,340,2012-11-08 22:54:00
6:54 PM,37.9,35.1,89,29.75,10.0,NNW,10.4,-,0.00,,Overcast,330,2012-11-08 23:54:00
7:39 PM,37.4,35.6,93,29.75,10.0,NNW,6.9,-,N/A,,Overcast,330,2012-11-09 00:39:00
7:54 PM,37.9,34.0,86,29.76,10.0,NNW,9.2,-,N/A,,Overcast,340,2012-11-09 00:54:00
8:54 PM,39.0,34.0,82,29.77,10.0,NW,6.9,17.3,N/A,,Overcast,320,2012-11-09 01:54:00
9:54 PM,39.0,33.1,79,29.77,10.0,NW,12.7,18.4,N/A,,Overcast,310,2012-11-09 02:54:00
10:54 PM,39.9,30.9,70,29.77,10.0,NW,8.1,17.3,N/A,,Overcast,310,2012-11-09 03:54:00
11:54 PM,39.9,30.9,70,29.78,10.0,NW,8.1,17.3,N/A,,Overcast,320,2012-11-09 04:54:00